sat.trackr.live / text

‹ back to catalog

STARLINK-30860

NORAD 58234 · 2023-171E

PAYLOAD ACTIVE UNKNOWN

§ Identity

Operator
Country
US
Launch date
2023-11-08
Launch site
AFETR
Launch vehicle
Mass (kg)
RCS (m²)

Purposes: comms

External: N2YO · Heavens-Above · Gunter

§ Orbital elements

Epoch: 2026-09-20T16:47:53.095776Z

Period
94.27 min
Inclination
43.0013°
Eccentricity
0.0001083
Mean motion
15.27576149 rev/d
Perigee alt
482.3 km
Apogee alt
483.8 km
Semi-major
6,861.2 km
B*
5.5333e-6
RAAN
263.5087°
Arg perigee
280.3717°
Mean anomaly
79.7013°
Rev number
15,956

§ Raw data

STARLINK-308601 58234U 23171E   26263.69992009 -.00000110  00000+0  55333-5 0  99952 58234  43.0013 263.5087 0001083 280.3717  79.7013 15.27576149159566

JSON: /api/v1/satellites/58234 · /tle

For live sub-satellite position, see the globe view (requires WebGL).

§ Visibility from observer

Set your observer location to see the next 7 days of passes ≥ 10°. The values pass through the URL so the page stays shareable.

No JS? Fill the form by hand. The geolocation button needs JavaScript.